Time,TemperatureF,DewpointF,PressureIn,WindDirection,WindDirectionDegrees,WindSpeedMPH,WindSpeedGustMPH,Humidity,HourlyPrecipIn,Conditions,Clouds,dailyrainin,SoftwareType,DateUTC
2013-02-21 00:00:00,36.1,8.4,30.09,NNE,21,0.0,0.0,31,0.00,,---,0.00,VWS V14.00,2013-02-21 05:00:00,
2013-02-21 00:06:00,36.0,8.3,30.09,North,6,0.0,0.0,31,0.00,,---,0.00,VWS V14.00,2013-02-21 05:06:00,
2013-02-21 00:11:00,35.8,8.1,30.09,NE,43,0.0,0.0,31,0.00,,---,0.00,VWS V14.00,2013-02-21 05:11:00,
2013-02-21 00:16:00,35.8,8.1,30.06,NE,39,0.0,0.0,31,0.00,,---,0.00,VWS V14.00,2013-02-21 05:16:00,
2013-02-21 00:21:00,35.6,8.0,30.06,NNE,26,2.7,2.7,31,0.00,,---,0.00,VWS V14.00,2013-02-21 05:21:00,
2013-02-21 00:26:00,35.4,7.8,30.06,NE,43,0.0,0.0,31,0.00,,---,0.00,VWS V14.00,2013-02-21 05:26:00,
2013-02-21 00:31:00,35.4,7.8,30.06,NNE,32,0.0,0.0,31,0.00,,---,0.00,VWS V14.00,2013-02-21 05:31:00,
2013-02-21 00:36:00,35.1,7.5,30.06,NNE,32,0.0,0.0,31,0.00,,---,0.00,VWS V14.00,2013-02-21 05:36:00,
2013-02-21 00:41:00,34.5,7.0,30.06,NNE,32,0.0,0.0,31,0.00,,---,0.00,VWS V14.00,2013-02-21 05:41:00,
2013-02-21 00:46:00,34.3,6.9,30.09,NNE,32,0.0,0.0,31,0.00,,---,0.00,VWS V14.00,2013-02-21 05:46:00,
2013-02-21 00:51:00,34.2,6.7,30.09,North,7,0.0,0.0,31,0.00,,---,0.00,VWS V14.00,2013-02-21 05:51:00,
2013-02-21 00:56:00,34.2,6.7,30.09,NNE,28,0.0,0.0,31,0.00,,---,0.00,VWS V14.00,2013-02-21 05:56:00,
2013-02-21 01:01:00,34.2,6.7,30.06,NE,47,3.6,3.6,31,0.00,,---,0.00,VWS V14.00,2013-02-21 06:01:00,
2013-02-21 01:06:00,34.2,6.7,30.06,NE,49,0.0,0.0,31,0.00,,---,0.00,VWS V14.00,2013-02-21 06:06:00,
2013-02-21 01:12:00,34.2,6.7,30.06,North,1,0.0,0.0,31,0.00,,---,0.00,VWS V14.00,2013-02-21 06:12:00,
2013-02-21 01:17:00,34.2,6.7,30.06,North,9,0.0,4.0,31,0.00,,---,0.00,VWS V14.00,2013-02-21 06:17:00,
2013-02-21 01:22:00,34.2,6.7,30.06,North,357,0.0,0.0,31,0.00,,---,0.00,VWS V14.00,2013-02-21 06:22:00,
2013-02-21 01:27:00,34.2,6.7,30.06,North,357,0.0,0.0,31,0.00,,---,0.00,VWS V14.00,2013-02-21 06:27:00,
2013-02-21 01:32:00,34.0,6.5,30.06,North,357,0.0,0.0,31,0.00,,---,0.00,VWS V14.00,2013-02-21 06:32:00,
2013-02-21 01:37:00,33.6,6.9,30.06,North,357,0.0,0.0,32,0.00,,---,0.00,VWS V14.00,2013-02-21 06:37:00,
2013-02-21 01:42:00,33.4,6.8,30.06,North,357,0.0,0.0,32,0.00,,---,0.00,VWS V14.00,2013-02-21 06:42:00,
2013-02-21 01:47:00,33.3,6.6,30.06,North,357,0.0,0.0,32,0.00,,---,0.00,VWS V14.00,2013-02-21 06:47:00,
2013-02-21 01:52:00,33.1,6.4,30.06,North,357,0.0,0.0,32,0.00,,---,0.00,VWS V14.00,2013-02-21 06:52:00,
2013-02-21 01:57:00,32.7,6.1,30.06,North,357,0.0,0.0,32,0.00,,---,0.00,VWS V14.00,2013-02-21 06:57:00,
2013-02-21 02:02:00,32.5,6.0,30.09,North,357,0.0,0.0,32,0.00,,---,0.00,VWS V14.00,2013-02-21 07:02:00,
2013-02-21 02:07:00,32.5,6.0,30.09,North,357,0.0,0.0,32,0.00,,---,0.00,VWS V14.00,2013-02-21 07:07:00,
2013-02-21 02:13:00,32.7,6.1,30.09,North,357,0.0,0.0,32,0.00,,---,0.00,VWS V14.00,2013-02-21 07:13:00,
2013-02-21 02:18:00,32.5,6.0,30.06,North,357,0.0,0.0,32,0.00,,---,0.00,VWS V14.00,2013-02-21 07:18:00,
2013-02-21 02:23:00,31.6,5.2,30.06,North,357,0.0,0.0,32,0.00,,---,0.00,VWS V14.00,2013-02-21 07:23:00,
2013-02-21 02:28:00,31.3,4.9,30.06,North,357,0.0,0.0,32,0.00,,---,0.00,VWS V14.00,2013-02-21 07:28:00,
2013-02-21 02:33:00,31.1,4.7,30.06,North,357,0.0,0.0,32,0.00,,---,0.00,VWS V14.00,2013-02-21 07:33:00,
2013-02-21 02:38:00,31.1,4.7,30.06,North,357,0.0,0.0,32,0.00,,---,0.00,VWS V14.00,2013-02-21 07:38:00,
2013-02-21 02:43:00,31.1,4.7,30.06,North,357,0.0,0.0,32,0.00,,---,0.00,VWS V14.00,2013-02-21 07:43:00,
2013-02-21 02:48:00,30.9,4.5,30.09,North,357,0.0,0.0,32,0.00,,---,0.00,VWS V14.00,2013-02-21 07:48:00,
2013-02-21 02:53:00,30.6,4.2,30.09,North,357,0.0,0.0,32,0.00,,---,0.00,VWS V14.00,2013-02-21 07:53:00,
2013-02-21 02:59:00,30.4,4.1,30.09,North,357,0.0,0.0,32,0.00,,---,0.00,VWS V14.00,2013-02-21 07:59:00,
2013-02-21 03:04:00,30.2,3.9,30.09,North,357,0.0,0.0,32,0.00,,---,0.00,VWS V14.00,2013-02-21 08:04:00,
2013-02-21 03:09:00,29.8,3.6,30.09,North,357,0.0,0.0,32,0.00,,---,0.00,VWS V14.00,2013-02-21 08:09:00,
2013-02-21 03:14:00,29.7,3.4,30.09,North,357,0.0,0.0,32,0.00,,---,0.00,VWS V14.00,2013-02-21 08:14:00,
2013-02-21 03:19:00,29.7,3.4,30.09,North,357,0.0,0.0,32,0.00,,---,0.00,VWS V14.00,2013-02-21 08:19:00,
2013-02-21 03:24:00,29.5,3.3,30.09,North,357,0.0,0.0,32,0.00,,---,0.00,VWS V14.00,2013-02-21 08:24:00,
2013-02-21 03:29:00,29.5,3.3,30.09,North,357,0.0,0.0,32,0.00,,---,0.00,VWS V14.00,2013-02-21 08:29:00,
2013-02-21 03:34:00,29.3,3.1,30.09,North,357,0.0,0.0,32,0.00,,---,0.00,VWS V14.00,2013-02-21 08:34:00,
2013-02-21 03:39:00,28.9,2.8,30.09,North,357,0.0,0.0,32,0.00,,---,0.00,VWS V14.00,2013-02-21 08:39:00,
2013-02-21 03:44:00,28.8,2.6,30.09,North,357,0.0,0.0,32,0.00,,---,0.00,VWS V14.00,2013-02-21 08:44:00,
2013-02-21 03:49:00,28.8,2.6,30.09,North,357,0.0,0.0,32,0.00,,---,0.00,VWS V14.00,2013-02-21 08:49:00,
2013-02-21 03:54:00,28.6,2.5,30.09,North,357,0.0,0.0,32,0.00,,---,0.00,VWS V14.00,2013-02-21 08:54:00,
2013-02-21 03:59:00,28.6,2.5,30.09,North,357,0.0,0.0,32,0.00,,---,0.00,VWS V14.00,2013-02-21 08:59:00,
2013-02-21 04:04:00,28.6,2.5,30.09,North,357,0.0,0.0,32,0.00,,---,0.00,VWS V14.00,2013-02-21 09:04:00,
2013-02-21 04:09:00,28.4,3.0,30.09,North,357,0.0,0.0,33,0.00,,---,0.00,VWS V14.00,2013-02-21 09:09:00,
2013-02-21 04:14:00,28.2,2.8,30.09,North,357,0.0,0.0,33,0.00,,---,0.00,VWS V14.00,2013-02-21 09:14:00,
2013-02-21 04:19:00,28.0,2.7,30.09,North,357,0.0,0.0,33,0.00,,---,0.00,VWS V14.00,2013-02-21 09:19:00,
2013-02-21 04:24:00,28.0,2.7,30.09,North,357,0.0,0.0,33,0.00,,---,0.00,VWS V14.00,2013-02-21 09:24:00,
2013-02-21 04:29:00,27.9,2.5,30.09,North,357,0.0,0.0,33,0.00,,---,0.00,VWS V14.00,2013-02-21 09:29:00,
2013-02-21 04:35:00,27.9,2.5,30.09,North,357,0.0,0.0,33,0.00,,---,0.00,VWS V14.00,2013-02-21 09:35:00,
2013-02-21 04:40:00,27.9,2.5,30.09,North,357,0.0,0.0,33,0.00,,---,0.00,VWS V14.00,2013-02-21 09:40:00,
2013-02-21 04:45:00,27.7,2.3,30.09,North,357,0.0,0.0,33,0.00,,---,0.00,VWS V14.00,2013-02-21 09:45:00,
2013-02-21 04:50:00,27.5,2.2,30.09,North,357,0.0,0.0,33,0.00,,---,0.00,VWS V14.00,2013-02-21 09:50:00,
2013-02-21 04:55:00,27.3,2.0,30.09,North,357,0.0,0.0,33,0.00,,---,0.00,VWS V14.00,2013-02-21 09:55:00,
2013-02-21 05:00:00,27.1,1.9,30.09,North,357,0.0,0.0,33,0.00,,---,0.00,VWS V14.00,2013-02-21 10:00:00,
2013-02-21 05:05:00,27.1,1.9,30.09,North,357,0.0,0.0,33,0.00,,---,0.00,VWS V14.00,2013-02-21 10:05:00,
2013-02-21 05:10:00,27.0,1.7,30.09,North,357,0.0,0.0,33,0.00,,---,0.00,VWS V14.00,2013-02-21 10:10:00,
2013-02-21 05:15:00,27.0,1.7,30.12,North,357,0.0,0.0,33,0.00,,---,0.00,VWS V14.00,2013-02-21 10:15:00,
2013-02-21 05:20:00,26.8,1.5,30.12,North,357,0.0,0.0,33,0.00,,---,0.00,VWS V14.00,2013-02-21 10:20:00,
2013-02-21 05:25:00,26.8,1.5,30.12,North,357,0.0,0.0,33,0.00,,---,0.00,VWS V14.00,2013-02-21 10:25:00,
2013-02-21 05:30:00,26.6,1.4,30.12,North,357,0.0,0.0,33,0.00,,---,0.00,VWS V14.00,2013-02-21 10:30:00,
2013-02-21 05:35:00,26.4,1.2,30.12,North,357,0.0,0.0,33,0.00,,---,0.00,VWS V14.00,2013-02-21 10:35:00,
2013-02-21 05:40:00,26.4,1.2,30.12,North,357,0.0,0.0,33,0.00,,---,0.00,VWS V14.00,2013-02-21 10:40:00,
2013-02-21 05:45:00,26.2,1.7,30.12,North,357,0.0,0.0,34,0.00,,---,0.00,VWS V14.00,2013-02-21 10:45:00,
2013-02-21 05:50:00,26.2,1.7,30.12,North,357,0.0,0.0,34,0.00,,---,0.00,VWS V14.00,2013-02-21 10:50:00,
2013-02-21 05:56:00,26.1,1.5,30.12,North,357,0.0,0.0,34,0.00,,---,0.00,VWS V14.00,2013-02-21 10:56:00,
2013-02-21 06:01:00,26.1,1.5,30.12,North,357,0.0,0.0,34,0.00,,---,0.00,VWS V14.00,2013-02-21 11:01:00,
2013-02-21 06:06:00,25.9,1.4,30.12,North,357,0.0,0.0,34,0.00,,---,0.00,VWS V14.00,2013-02-21 11:06:00,
2013-02-21 06:11:00,25.9,1.4,30.12,North,357,0.0,0.0,34,0.00,,---,0.00,VWS V14.00,2013-02-21 11:11:00,
2013-02-21 06:16:00,25.9,1.4,30.12,North,357,0.0,0.0,34,0.00,,---,0.00,VWS V14.00,2013-02-21 11:16:00,
2013-02-21 06:21:00,25.7,1.2,30.12,North,357,0.0,0.0,34,0.00,,---,0.00,VWS V14.00,2013-02-21 11:21:00,
2013-02-21 06:26:00,25.7,1.2,30.12,North,357,0.0,0.0,34,0.00,,---,0.00,VWS V14.00,2013-02-21 11:26:00,
2013-02-21 06:31:00,25.7,1.9,30.15,North,357,0.0,0.0,35,0.00,,---,0.00,VWS V14.00,2013-02-21 11:31:00,
2013-02-21 06:36:00,25.5,1.7,30.15,North,357,0.0,0.0,35,0.00,,---,0.00,VWS V14.00,2013-02-21 11:36:00,
2013-02-21 06:41:00,25.5,1.7,30.15,North,357,0.0,0.0,35,0.00,,---,0.00,VWS V14.00,2013-02-21 11:41:00,
2013-02-21 06:46:00,25.3,1.5,30.15,North,357,0.0,0.0,35,0.00,,---,0.00,VWS V14.00,2013-02-21 11:46:00,
2013-02-21 06:51:00,25.3,1.5,30.15,North,357,0.0,0.0,35,0.00,,---,0.00,VWS V14.00,2013-02-21 11:51:00,
2013-02-21 06:56:00,25.3,1.5,30.15,North,357,0.0,0.0,35,0.00,,---,0.00,VWS V14.00,2013-02-21 11:56:00,
2013-02-21 07:01:00,25.3,1.5,30.15,North,357,0.0,0.0,35,0.00,,---,0.00,VWS V14.00,2013-02-21 12:01:00,
2013-02-21 07:06:00,25.2,1.4,30.15,North,357,0.0,0.0,35,0.00,,---,0.00,VWS V14.00,2013-02-21 12:06:00,
2013-02-21 07:11:00,25.0,1.2,30.15,North,357,0.0,0.0,35,0.00,,---,0.00,VWS V14.00,2013-02-21 12:11:00,
2013-02-21 07:17:00,24.8,1.6,30.15,North,357,0.0,0.0,36,0.00,,---,0.00,VWS V14.00,2013-02-21 12:17:00,
2013-02-21 07:22:00,24.8,1.6,30.15,North,357,0.0,0.0,36,0.00,,---,0.00,VWS V14.00,2013-02-21 12:22:00,
2013-02-21 07:27:00,25.0,1.8,30.15,North,357,0.0,0.0,36,0.00,,---,0.00,VWS V14.00,2013-02-21 12:27:00,
2013-02-21 07:32:00,25.0,1.8,30.15,North,357,0.0,0.0,36,0.00,,---,0.00,VWS V14.00,2013-02-21 12:32:00,
2013-02-21 07:37:00,25.2,2.0,30.15,North,357,0.0,0.0,36,0.00,,---,0.00,VWS V14.00,2013-02-21 12:37:00,
2013-02-21 07:42:00,25.3,2.1,30.15,North,357,0.0,0.0,36,0.00,,---,0.00,VWS V14.00,2013-02-21 12:42:00,
2013-02-21 07:47:00,25.5,2.9,30.15,North,357,0.0,0.0,37,0.00,,---,0.00,VWS V14.00,2013-02-21 12:47:00,
2013-02-21 07:52:00,25.9,3.2,30.15,North,357,0.0,0.0,37,0.00,,---,0.00,VWS V14.00,2013-02-21 12:52:00,
2013-02-21 07:57:00,26.4,4.3,30.15,North,357,0.0,0.0,38,0.00,,---,0.00,VWS V14.00,2013-02-21 12:57:00,
2013-02-21 08:03:00,27.3,5.1,30.15,North,357,0.0,0.0,38,0.00,,---,0.00,VWS V14.00,2013-02-21 13:03:00,
2013-02-21 08:08:00,28.0,5.7,30.15,North,357,0.0,0.0,38,0.00,,---,0.00,VWS V14.00,2013-02-21 13:08:00,
2013-02-21 08:13:00,28.6,6.2,30.15,North,357,0.0,0.0,38,0.00,,---,0.00,VWS V14.00,2013-02-21 13:13:00,
2013-02-21 08:18:00,29.3,6.9,30.15,North,357,0.0,0.0,38,0.00,,---,0.00,VWS V14.00,2013-02-21 13:18:00,
2013-02-21 08:23:00,29.8,7.3,30.15,North,357,0.0,0.0,38,0.00,,---,0.00,VWS V14.00,2013-02-21 13:23:00,
2013-02-21 08:28:00,30.2,7.7,30.15,North,357,0.0,0.0,38,0.00,,---,0.00,VWS V14.00,2013-02-21 13:28:00,
2013-02-21 08:33:00,30.7,8.1,30.15,North,357,0.0,0.0,38,0.00,,---,0.00,VWS V14.00,2013-02-21 13:33:00,
2013-02-21 08:38:00,31.5,8.8,30.15,North,357,0.0,0.0,38,0.00,,---,0.00,VWS V14.00,2013-02-21 13:38:00,
2013-02-21 08:43:00,32.2,7.6,30.15,NNW,343,0.0,0.0,35,0.00,,---,0.00,VWS V14.00,2013-02-21 13:43:00,
2013-02-21 08:48:00,32.9,7.6,30.18,North,353,0.0,0.0,34,0.00,,---,0.00,VWS V14.00,2013-02-21 13:48:00,
2013-02-21 08:53:00,33.4,7.4,30.18,NW,321,0.0,0.0,33,0.00,,---,0.00,VWS V14.00,2013-02-21 13:53:00,
2013-02-21 08:58:00,34.0,7.2,30.18,NW,321,0.0,0.0,32,0.00,,---,0.00,VWS V14.00,2013-02-21 13:58:00,
2013-02-21 09:03:00,34.7,7.9,30.18,WNW,298,0.0,0.0,32,0.00,,---,0.00,VWS V14.00,2013-02-21 14:03:00,
2013-02-21 09:09:00,35.2,8.4,30.18,North,357,0.0,0.0,32,0.00,,---,0.00,VWS V14.00,2013-02-21 14:09:00,
2013-02-21 09:14:00,35.8,8.8,30.18,NNW,327,0.0,0.0,32,0.00,,---,0.00,VWS V14.00,2013-02-21 14:14:00,
2013-02-21 09:19:00,36.1,9.1,30.15,NNW,334,0.0,0.0,32,0.00,,---,0.00,VWS V14.00,2013-02-21 14:19:00,
2013-02-21 09:24:00,37.0,9.2,30.15,ESE,107,0.0,0.0,31,0.00,,---,0.00,VWS V14.00,2013-02-21 14:24:00,
2013-02-21 09:29:00,37.9,10.0,30.15,SE,129,0.0,0.0,31,0.00,,---,0.00,VWS V14.00,2013-02-21 14:29:00,
2013-02-21 09:34:00,38.7,10.6,30.15,WSW,254,0.0,0.0,31,0.00,,---,0.00,VWS V14.00,2013-02-21 14:34:00,
2013-02-21 09:39:00,39.0,11.0,30.15,NNW,327,0.0,0.0,31,0.00,,---,0.00,VWS V14.00,2013-02-21 14:39:00,
2013-02-21 09:44:00,39.7,10.9,30.15,NNW,341,0.0,0.0,30,0.00,,---,0.00,VWS V14.00,2013-02-21 14:44:00,
2013-02-21 09:49:00,39.9,11.0,30.15,East,98,0.0,0.0,30,0.00,,---,0.00,VWS V14.00,2013-02-21 14:49:00,
2013-02-21 09:54:00,40.6,11.6,30.15,NW,318,0.0,0.0,30,0.00,,---,0.00,VWS V14.00,2013-02-21 14:54:00,
2013-02-21 09:59:00,41.2,12.1,30.15,North,353,0.0,0.0,30,0.00,,---,0.00,VWS V14.00,2013-02-21 14:59:00,
2013-02-21 10:04:00,41.4,12.3,30.15,NNW,330,0.0,0.0,30,0.00,,---,0.00,VWS V14.00,2013-02-21 15:04:00,
2013-02-21 10:09:00,41.7,12.6,30.15,WSW,237,0.0,0.0,30,0.00,,---,0.00,VWS V14.00,2013-02-21 15:09:00,
2013-02-21 10:14:00,42.3,13.1,30.15,NE,38,0.0,0.0,30,0.00,,---,0.00,VWS V14.00,2013-02-21 15:14:00,
2013-02-21 10:20:00,42.6,13.4,30.15,NW,310,0.0,0.0,30,0.00,,---,0.00,VWS V14.00,2013-02-21 15:20:00,
2013-02-21 10:25:00,43.0,13.7,30.15,SW,232,0.0,0.0,30,0.00,,---,0.00,VWS V14.00,2013-02-21 15:25:00,
2013-02-21 10:30:00,43.3,14.0,30.15,WSW,255,0.0,0.0,30,0.00,,---,0.00,VWS V14.00,2013-02-21 15:30:00,
2013-02-21 10:35:00,43.5,14.2,30.15,SW,234,0.0,0.0,30,0.00,,---,0.00,VWS V14.00,2013-02-21 15:35:00,
2013-02-21 10:40:00,43.9,14.5,30.15,SW,215,0.0,0.0,30,0.00,,---,0.00,VWS V14.00,2013-02-21 15:40:00,
2013-02-21 10:45:00,44.6,14.3,30.15,SW,221,4.0,4.0,29,0.00,,---,0.00,VWS V14.00,2013-02-21 15:45:00,
2013-02-21 10:50:00,44.4,14.9,30.15,WSW,245,0.0,0.0,30,0.00,,---,0.00,VWS V14.00,2013-02-21 15:50:00,
2013-02-21 10:55:00,44.6,14.3,30.15,ESE,122,2.2,3.6,29,0.00,,---,0.00,VWS V14.00,2013-02-21 15:55:00,
2013-02-21 11:00:00,44.8,14.5,30.15,NW,314,0.0,0.0,29,0.00,,---,0.00,VWS V14.00,2013-02-21 16:00:00,
2013-02-21 11:05:00,45.0,14.6,30.15,NE,56,0.0,0.0,29,0.00,,---,0.00,VWS V14.00,2013-02-21 16:05:00,
2013-02-21 11:10:00,45.3,14.9,30.15,NW,326,2.2,3.6,29,0.00,,---,0.00,VWS V14.00,2013-02-21 16:10:00,
2013-02-21 11:15:00,45.3,14.9,30.15,SW,236,5.8,5.8,29,0.00,,---,0.00,VWS V14.00,2013-02-21 16:15:00,
2013-02-21 11:20:00,46.0,15.6,30.15,WNW,282,2.2,2.7,29,0.00,,---,0.00,VWS V14.00,2013-02-21 16:20:00,
2013-02-21 11:25:00,46.2,15.7,30.15,NNE,20,3.6,4.9,29,0.00,,---,0.00,VWS V14.00,2013-02-21 16:25:00,
2013-02-21 11:30:00,46.4,15.9,30.15,SW,226,0.0,3.1,29,0.00,,---,0.00,VWS V14.00,2013-02-21 16:30:00,
2013-02-21 11:35:00,46.6,16.0,30.15,WSW,243,5.4,6.3,29,0.00,,---,0.00,VWS V14.00,2013-02-21 16:35:00,
2013-02-21 11:40:00,47.1,16.5,30.15,SSW,204,2.7,3.6,29,0.00,,---,0.00,VWS V14.00,2013-02-21 16:40:00,
2013-02-21 11:45:00,47.7,17.0,30.15,WNW,290,4.9,5.8,29,0.00,,---,0.00,VWS V14.00,2013-02-21 16:45:00,
2013-02-21 11:50:00,47.5,16.8,30.15,WSW,250,2.7,3.1,29,0.00,,---,0.00,VWS V14.00,2013-02-21 16:50:00,
2013-02-21 11:55:00,47.3,16.7,30.15,SE,144,0.0,0.0,29,0.00,,---,0.00,VWS V14.00,2013-02-21 16:55:00,
2013-02-21 12:00:00,48.0,17.3,30.12,West,259,3.6,3.6,29,0.00,,---,0.00,VWS V14.00,2013-02-21 17:00:00,
2013-02-21 12:05:00,48.6,17.0,30.12,North,5,2.2,2.7,28,0.00,,---,0.00,VWS V14.00,2013-02-21 17:05:00,
2013-02-21 12:10:00,48.6,17.0,30.12,NE,47,0.0,3.1,28,0.00,,---,0.00,VWS V14.00,2013-02-21 17:10:00,
2013-02-21 12:16:00,48.9,17.3,30.12,East,96,0.0,0.0,28,0.00,,---,0.00,VWS V14.00,2013-02-21 17:16:00,
2013-02-21 12:21:00,49.3,17.6,30.12,South,176,3.1,3.1,28,0.00,,---,0.00,VWS V14.00,2013-02-21 17:21:00,
2013-02-21 12:26:00,49.6,17.9,30.12,SW,226,0.0,0.0,28,0.00,,---,0.00,VWS V14.00,2013-02-21 17:26:00,
2013-02-21 12:31:00,49.8,18.0,30.12,NW,306,0.0,0.0,28,0.00,,---,0.00,VWS V14.00,2013-02-21 17:31:00,
2013-02-21 12:36:00,50.4,18.5,30.12,NNE,26,0.0,0.0,28,0.00,,---,0.00,VWS V14.00,2013-02-21 17:36:00,
2013-02-21 12:41:00,50.5,18.7,30.12,ENE,62,2.7,2.7,28,0.00,,---,0.00,VWS V14.00,2013-02-21 17:41:00,
2013-02-21 12:46:00,51.4,19.4,30.09,NE,55,0.0,0.0,28,0.00,,---,0.00,VWS V14.00,2013-02-21 17:46:00,
2013-02-21 12:51:00,51.6,19.6,30.09,North,357,3.6,5.4,28,0.00,,---,0.00,VWS V14.00,2013-02-21 17:51:00,
2013-02-21 12:56:00,51.6,19.6,30.09,WSW,241,0.0,0.0,28,0.00,,---,0.00,VWS V14.00,2013-02-21 17:56:00,
2013-02-21 13:01:00,52.2,20.1,30.09,NW,319,2.7,5.8,28,0.00,,---,0.00,VWS V14.00,2013-02-21 18:01:00,
2013-02-21 13:06:00,52.7,20.5,30.09,North,353,0.0,0.0,28,0.00,,---,0.00,VWS V14.00,2013-02-21 18:06:00,
2013-02-21 13:11:00,53.2,21.0,30.09,West,262,5.8,5.8,28,0.00,,---,0.00,VWS V14.00,2013-02-21 18:11:00,
2013-02-21 13:16:00,53.1,20.8,30.09,NW,317,3.6,3.6,28,0.00,,---,0.00,VWS V14.00,2013-02-21 18:16:00,
2013-02-21 13:21:00,52.5,20.4,30.09,SSE,158,0.0,3.1,28,0.00,,---,0.00,VWS V14.00,2013-02-21 18:21:00,
2013-02-21 13:26:00,52.9,20.7,30.09,SW,218,4.0,4.9,28,0.00,,---,0.00,VWS V14.00,2013-02-21 18:26:00,
2013-02-21 13:31:00,52.7,20.5,30.09,SW,224,2.7,3.6,28,0.00,,---,0.00,VWS V14.00,2013-02-21 18:31:00,
2013-02-21 13:36:00,53.2,21.0,30.09,North,357,0.0,3.1,28,0.00,,---,0.00,VWS V14.00,2013-02-21 18:36:00,
2013-02-21 13:41:00,53.4,21.1,30.09,WNW,293,0.0,3.1,28,0.00,,---,0.00,VWS V14.00,2013-02-21 18:41:00,
2013-02-21 13:47:00,53.6,20.5,30.09,North,0,0.0,3.1,27,0.00,,---,0.00,VWS V14.00,2013-02-21 18:47:00,
2013-02-21 13:52:00,53.8,20.6,30.09,NW,317,0.0,0.0,27,0.00,,---,0.00,VWS V14.00,2013-02-21 18:52:00,
2013-02-21 13:57:00,54.0,20.8,30.09,North,9,0.0,0.0,27,0.00,,---,0.00,VWS V14.00,2013-02-21 18:57:00,
2013-02-21 14:02:00,54.3,21.1,30.06,NNW,337,0.0,0.0,27,0.00,,---,0.00,VWS V14.00,2013-02-21 19:02:00,
2013-02-21 14:07:00,54.1,20.9,30.06,North,357,0.0,0.0,27,0.00,,---,0.00,VWS V14.00,2013-02-21 19:07:00,
2013-02-21 14:12:00,54.0,20.8,30.06,SSE,157,0.0,0.0,27,0.00,,---,0.00,VWS V14.00,2013-02-21 19:12:00,
2013-02-21 14:17:00,54.3,21.1,30.06,SW,218,0.0,0.0,27,0.00,,---,0.00,VWS V14.00,2013-02-21 19:17:00,
2013-02-21 14:22:00,54.5,21.2,30.06,SSW,197,0.0,0.0,27,0.00,,---,0.00,VWS V14.00,2013-02-21 19:22:00,
2013-02-21 14:27:00,54.7,21.4,30.06,East,95,0.0,0.0,27,0.00,,---,0.00,VWS V14.00,2013-02-21 19:27:00,
2013-02-21 14:32:00,54.5,21.2,30.06,NE,56,0.0,0.0,27,0.00,,---,0.00,VWS V14.00,2013-02-21 19:32:00,
2013-02-21 14:37:00,54.3,21.1,30.06,SSW,205,0.0,0.0,27,0.00,,---,0.00,VWS V14.00,2013-02-21 19:37:00,
2013-02-21 14:42:00,55.4,22.0,30.06,NW,311,0.0,0.0,27,0.00,,---,0.00,VWS V14.00,2013-02-21 19:42:00,
2013-02-21 14:47:00,55.6,22.1,30.06,ENE,57,0.0,0.0,27,0.00,,---,0.00,VWS V14.00,2013-02-21 19:47:00,
2013-02-21 14:53:00,54.9,21.5,30.06,NE,36,3.6,4.0,27,0.00,,---,0.00,VWS V14.00,2013-02-21 19:53:00,
2013-02-21 14:58:00,55.2,21.8,30.06,SW,214,2.2,3.6,27,0.00,,---,0.00,VWS V14.00,2013-02-21 19:58:00,
2013-02-21 15:03:00,55.4,22.0,30.06,WNW,293,0.0,0.0,27,0.00,,---,0.00,VWS V14.00,2013-02-21 20:03:00,
2013-02-21 15:08:00,55.4,22.0,30.06,NE,56,2.2,2.2,27,0.00,,---,0.00,VWS V14.00,2013-02-21 20:08:00,
2013-02-21 15:13:00,55.2,21.8,30.06,WNW,290,5.4,6.3,27,0.00,,---,0.00,VWS V14.00,2013-02-21 20:13:00,
2013-02-21 15:18:00,55.2,21.8,30.06,SSE,161,3.1,3.6,27,0.00,,---,0.00,VWS V14.00,2013-02-21 20:18:00,
2013-02-21 15:23:00,55.9,22.5,30.06,South,187,3.1,3.1,27,0.00,,---,0.00,VWS V14.00,2013-02-21 20:23:00,
2013-02-21 15:28:00,55.9,22.5,30.06,South,176,3.1,3.1,27,0.00,,---,0.00,VWS V14.00,2013-02-21 20:28:00,
2013-02-21 15:33:00,55.9,22.5,30.06,East,81,4.0,4.0,27,0.00,,---,0.00,VWS V14.00,2013-02-21 20:33:00,
2013-02-21 15:38:00,55.8,22.3,30.06,SSW,192,3.1,3.1,27,0.00,,---,0.00,VWS V14.00,2013-02-21 20:38:00,
2013-02-21 15:43:00,55.9,22.5,30.06,SSW,211,0.0,0.0,27,0.00,,---,0.00,VWS V14.00,2013-02-21 20:43:00,
2013-02-21 15:49:00,56.3,22.8,30.06,WSW,257,0.0,0.0,27,0.00,,---,0.00,VWS V14.00,2013-02-21 20:49:00,
2013-02-21 15:54:00,56.5,22.9,30.06,South,186,2.7,2.7,27,0.00,,---,0.00,VWS V14.00,2013-02-21 20:54:00,
2013-02-21 15:59:00,56.7,23.1,30.06,South,191,0.0,3.6,27,0.00,,---,0.00,VWS V14.00,2013-02-21 20:59:00,
2013-02-21 16:04:00,56.8,23.2,30.06,South,178,2.2,3.1,27,0.00,,---,0.00,VWS V14.00,2013-02-21 21:04:00,
2013-02-21 16:09:00,56.8,23.2,30.06,SE,136,2.7,2.7,27,0.00,,---,0.00,VWS V14.00,2013-02-21 21:09:00,
2013-02-21 16:14:00,56.3,22.8,30.06,SSW,194,0.0,0.0,27,0.00,,---,0.00,VWS V14.00,2013-02-21 21:14:00,
2013-02-21 16:19:00,56.7,23.1,30.06,WSW,237,0.0,0.0,27,0.00,,---,0.00,VWS V14.00,2013-02-21 21:19:00,
2013-02-21 16:24:00,56.5,22.9,30.06,SSW,210,0.0,0.0,27,0.00,,---,0.00,VWS V14.00,2013-02-21 21:24:00,
2013-02-21 16:29:00,56.3,22.8,30.06,South,187,0.0,0.0,27,0.00,,---,0.00,VWS V14.00,2013-02-21 21:29:00,
2013-02-21 16:34:00,55.9,22.5,30.06,SSW,200,3.6,3.6,27,0.00,,---,0.00,VWS V14.00,2013-02-21 21:34:00,
2013-02-21 16:39:00,55.9,22.5,30.06,South,169,0.0,0.0,27,0.00,,---,0.00,VWS V14.00,2013-02-21 21:39:00,
2013-02-21 16:44:00,55.4,22.0,30.09,SSW,206,2.2,3.6,27,0.00,,---,0.00,VWS V14.00,2013-02-21 21:44:00,
2013-02-21 16:49:00,55.2,21.8,30.09,South,178,0.0,0.0,27,0.00,,---,0.00,VWS V14.00,2013-02-21 21:49:00,
2013-02-21 16:54:00,54.9,21.5,30.09,South,183,0.0,0.0,27,0.00,,---,0.00,VWS V14.00,2013-02-21 21:54:00,
2013-02-21 16:59:00,54.7,21.4,30.09,South,183,0.0,0.0,27,0.00,,---,0.00,VWS V14.00,2013-02-21 21:59:00,
2013-02-21 17:04:00,54.3,21.1,30.09,SSW,193,0.0,0.0,27,0.00,,---,0.00,VWS V14.00,2013-02-21 22:04:00,
2013-02-21 17:09:00,54.1,20.9,30.09,SSE,154,0.0,0.0,27,0.00,,---,0.00,VWS V14.00,2013-02-21 22:09:00,
2013-02-21 17:14:00,54.1,20.9,30.09,South,174,0.0,0.0,27,0.00,,---,0.00,VWS V14.00,2013-02-21 22:14:00,
2013-02-21 17:19:00,53.8,20.6,30.09,South,174,0.0,0.0,27,0.00,,---,0.00,VWS V14.00,2013-02-21 22:19:00,
2013-02-21 17:24:00,53.6,20.5,30.09,South,174,0.0,0.0,27,0.00,,---,0.00,VWS V14.00,2013-02-21 22:24:00,
2013-02-21 17:29:00,53.4,21.1,30.09,South,174,0.0,0.0,28,0.00,,---,0.00,VWS V14.00,2013-02-21 22:29:00,
2013-02-21 17:35:00,53.1,20.8,30.09,South,174,0.0,0.0,28,0.00,,---,0.00,VWS V14.00,2013-02-21 22:35:00,
2013-02-21 17:40:00,52.7,20.5,30.09,ESE,123,0.0,0.0,28,0.00,,---,0.00,VWS V14.00,2013-02-21 22:40:00,
2013-02-21 17:45:00,52.3,20.2,30.09,ESE,123,0.0,0.0,28,0.00,,---,0.00,VWS V14.00,2013-02-21 22:45:00,
2013-02-21 17:50:00,52.0,19.9,30.09,ESE,123,0.0,0.0,28,0.00,,---,0.00,VWS V14.00,2013-02-21 22:50:00,
2013-02-21 17:55:00,51.8,19.8,30.09,ESE,123,0.0,0.0,28,0.00,,---,0.00,VWS V14.00,2013-02-21 22:55:00,
2013-02-21 18:00:00,51.4,19.4,30.09,ESE,123,0.0,0.0,28,0.00,,---,0.00,VWS V14.00,2013-02-21 23:00:00,
2013-02-21 18:05:00,51.1,19.1,30.09,ESE,123,0.0,0.0,28,0.00,,---,0.00,VWS V14.00,2013-02-21 23:05:00,
2013-02-21 18:10:00,50.7,18.8,30.09,ESE,123,0.0,0.0,28,0.00,,---,0.00,VWS V14.00,2013-02-21 23:10:00,
2013-02-21 18:15:00,50.4,18.5,30.06,ESE,123,0.0,0.0,28,0.00,,---,0.00,VWS V14.00,2013-02-21 23:15:00,
2013-02-21 18:20:00,50.0,18.2,30.06,ESE,123,0.0,0.0,28,0.00,,---,0.00,VWS V14.00,2013-02-21 23:20:00,
2013-02-21 18:25:00,49.8,18.0,30.06,ESE,123,0.0,0.0,28,0.00,,---,0.00,VWS V14.00,2013-02-21 23:25:00,
2013-02-21 18:30:00,49.8,18.0,30.09,ENE,63,0.0,0.0,28,0.00,,---,0.00,VWS V14.00,2013-02-21 23:30:00,
2013-02-21 18:35:00,49.6,17.9,30.09,ENE,63,0.0,0.0,28,0.00,,---,0.00,VWS V14.00,2013-02-21 23:35:00,
2013-02-21 18:40:00,49.3,17.6,30.09,ENE,63,0.0,0.0,28,0.00,,---,0.00,VWS V14.00,2013-02-21 23:40:00,
2013-02-21 18:45:00,48.9,17.3,30.12,ENE,63,0.0,0.0,28,0.00,,---,0.00,VWS V14.00,2013-02-21 23:45:00,
2013-02-21 18:50:00,48.6,17.0,30.12,ENE,63,0.0,0.0,28,0.00,,---,0.00,VWS V14.00,2013-02-21 23:50:00,
2013-02-21 18:55:00,48.4,16.8,30.12,ENE,63,0.0,0.0,28,0.00,,---,0.00,VWS V14.00,2013-02-21 23:55:00,
2013-02-21 19:00:00,48.0,17.3,30.12,NE,54,0.0,0.0,29,0.00,,---,0.00,VWS V14.00,2013-02-22 00:00:00,
2013-02-21 19:05:00,47.7,17.0,30.12,NE,54,0.0,0.0,29,0.00,,---,0.00,VWS V14.00,2013-02-22 00:05:00,
2013-02-21 19:10:00,47.5,16.8,30.12,ENE,71,0.0,0.0,29,0.00,,---,0.00,VWS V14.00,2013-02-22 00:10:00,
2013-02-21 19:15:00,47.8,17.1,30.12,ENE,59,0.0,0.0,29,0.00,,---,0.00,VWS V14.00,2013-02-22 00:15:00,
2013-02-21 19:20:00,47.7,17.0,30.12,NE,44,0.0,0.0,29,0.00,,---,0.00,VWS V14.00,2013-02-22 00:20:00,
2013-02-21 19:25:00,47.5,16.8,30.12,ENE,73,0.0,0.0,29,0.00,,---,0.00,VWS V14.00,2013-02-22 00:25:00,
2013-02-21 19:30:00,47.5,16.8,30.12,ENE,75,0.0,0.0,29,0.00,,---,0.00,VWS V14.00,2013-02-22 00:30:00,
2013-02-21 19:35:00,47.5,16.8,30.12,ENE,75,0.0,0.0,29,0.00,,---,0.00,VWS V14.00,2013-02-22 00:35:00,
2013-02-21 19:40:00,47.3,16.7,30.12,ENE,73,0.0,0.0,29,0.00,,---,0.00,VWS V14.00,2013-02-22 00:40:00,
2013-02-21 19:45:00,47.3,16.7,30.09,ENE,57,0.0,0.0,29,0.00,,---,0.00,VWS V14.00,2013-02-22 00:45:00,
2013-02-21 19:50:00,47.3,16.7,30.09,ENE,71,0.0,0.0,29,0.00,,---,0.00,VWS V14.00,2013-02-22 00:50:00,
2013-02-21 19:55:00,47.8,17.1,30.09,ENE,62,0.0,0.0,29,0.00,,---,0.00,VWS V14.00,2013-02-22 00:55:00,
2013-02-21 20:00:00,47.8,17.1,30.12,ENE,57,3.1,4.0,29,0.00,,---,0.00,VWS V14.00,2013-02-22 01:00:00,
2013-02-21 20:05:00,48.4,16.8,30.12,ENE,60,2.7,3.1,28,0.00,,---,0.00,VWS V14.00,2013-02-22 01:05:00,
2013-02-21 20:10:00,48.6,17.0,30.12,ENE,77,2.7,2.7,28,0.00,,---,0.00,VWS V14.00,2013-02-22 01:10:00,
2013-02-21 20:15:00,48.4,16.8,30.12,East,84,0.0,0.0,28,0.00,,---,0.00,VWS V14.00,2013-02-22 01:15:00,
2013-02-21 20:20:00,48.4,16.8,30.12,ENE,61,0.0,0.0,28,0.00,,---,0.00,VWS V14.00,2013-02-22 01:20:00,
2013-02-21 20:25:00,48.4,16.8,30.12,East,84,2.7,3.1,28,0.00,,---,0.00,VWS V14.00,2013-02-22 01:25:00,
2013-02-21 20:30:00,47.8,17.1,30.12,ENE,58,0.0,0.0,29,0.00,,---,0.00,VWS V14.00,2013-02-22 01:30:00,
2013-02-21 20:35:00,47.8,17.1,30.12,ENE,78,0.0,0.0,29,0.00,,---,0.00,VWS V14.00,2013-02-22 01:35:00,
2013-02-21 20:40:00,47.8,17.1,30.12,ENE,76,0.0,0.0,29,0.00,,---,0.00,VWS V14.00,2013-02-22 01:40:00,
2013-02-21 20:45:00,47.8,17.1,30.12,NE,55,0.0,0.0,29,0.00,,---,0.00,VWS V14.00,2013-02-22 01:45:00,
2013-02-21 20:50:00,47.8,17.1,30.12,ENE,60,0.0,3.1,29,0.00,,---,0.00,VWS V14.00,2013-02-22 01:50:00,
2013-02-21 20:55:00,47.8,17.1,30.12,NE,51,0.0,0.0,29,0.00,,---,0.00,VWS V14.00,2013-02-22 01:55:00,
2013-02-21 21:00:00,47.8,17.1,30.12,NE,54,2.2,2.2,29,0.00,,---,0.00,VWS V14.00,2013-02-22 02:00:00,
2013-02-21 21:05:00,47.8,17.1,30.12,ENE,70,2.2,3.1,29,0.00,,---,0.00,VWS V14.00,2013-02-22 02:05:00,
2013-02-21 21:10:00,47.8,17.1,30.12,NE,46,0.0,0.0,29,0.00,,---,0.00,VWS V14.00,2013-02-22 02:10:00,
2013-02-21 21:15:00,47.8,17.1,30.15,ENE,62,0.0,0.0,29,0.00,,---,0.00,VWS V14.00,2013-02-22 02:15:00,
2013-02-21 21:20:00,47.3,16.7,30.15,NE,53,0.0,0.0,29,0.00,,---,0.00,VWS V14.00,2013-02-22 02:20:00,
2013-02-21 21:25:00,47.3,16.7,30.15,East,88,0.0,0.0,29,0.00,,---,0.00,VWS V14.00,2013-02-22 02:25:00,
2013-02-21 21:30:00,47.3,16.7,30.15,East,89,0.0,0.0,29,0.00,,---,0.00,VWS V14.00,2013-02-22 02:30:00,
2013-02-21 21:35:00,47.1,16.5,30.15,ENE,64,0.0,0.0,29,0.00,,---,0.00,VWS V14.00,2013-02-22 02:35:00,
2013-02-21 21:40:00,46.9,16.4,30.15,ENE,57,0.0,0.0,29,0.00,,---,0.00,VWS V14.00,2013-02-22 02:40:00,
2013-02-21 21:45:00,46.6,16.0,30.15,East,89,0.0,0.0,29,0.00,,---,0.00,VWS V14.00,2013-02-22 02:45:00,
2013-02-21 21:50:00,46.6,16.0,30.15,East,86,0.0,0.0,29,0.00,,---,0.00,VWS V14.00,2013-02-22 02:50:00,
2013-02-21 21:55:00,46.6,16.0,30.15,ENE,71,2.7,3.6,29,0.00,,---,0.00,VWS V14.00,2013-02-22 02:55:00,
2013-02-21 22:01:00,46.6,16.0,30.15,ENE,66,4.9,4.9,29,0.00,,---,0.00,VWS V14.00,2013-02-22 03:01:00,
2013-02-21 22:06:00,46.4,15.9,30.15,NE,56,0.0,3.6,29,0.00,,---,0.00,VWS V14.00,2013-02-22 03:06:00,
2013-02-21 22:11:00,46.4,15.9,30.15,NE,44,3.6,3.6,29,0.00,,---,0.00,VWS V14.00,2013-02-22 03:11:00,
2013-02-21 22:16:00,46.2,15.7,30.15,ENE,74,4.0,7.6,29,0.00,,---,0.00,VWS V14.00,2013-02-22 03:16:00,
2013-02-21 22:21:00,46.2,15.7,30.15,ESE,108,5.8,7.6,29,0.00,,---,0.00,VWS V14.00,2013-02-22 03:21:00,
2013-02-21 22:26:00,46.2,15.7,30.15,East,89,4.0,5.4,29,0.00,,---,0.00,VWS V14.00,2013-02-22 03:26:00,
2013-02-21 22:31:00,46.2,15.7,30.15,NE,48,2.2,5.8,29,0.00,,---,0.00,VWS V14.00,2013-02-22 03:31:00,
2013-02-21 22:36:00,45.9,15.4,30.15,ENE,70,0.0,0.0,29,0.00,,---,0.00,VWS V14.00,2013-02-22 03:36:00,
2013-02-21 22:41:00,45.9,15.4,30.15,ENE,72,0.0,0.0,29,0.00,,---,0.00,VWS V14.00,2013-02-22 03:41:00,
2013-02-21 22:46:00,45.9,15.4,30.18,NE,56,0.0,0.0,29,0.00,,---,0.00,VWS V14.00,2013-02-22 03:46:00,
2013-02-21 22:51:00,45.9,15.4,30.18,NE,48,0.0,0.0,29,0.00,,---,0.00,VWS V14.00,2013-02-22 03:51:00,
2013-02-21 22:56:00,45.9,15.4,30.18,ENE,77,0.0,0.0,29,0.00,,---,0.00,VWS V14.00,2013-02-22 03:56:00,
2013-02-21 23:01:00,45.9,15.4,30.18,East,92,0.0,0.0,29,0.00,,---,0.00,VWS V14.00,2013-02-22 04:01:00,
2013-02-21 23:06:00,45.9,15.4,30.18,East,92,0.0,0.0,29,0.00,,---,0.00,VWS V14.00,2013-02-22 04:06:00,
2013-02-21 23:11:00,45.7,15.3,30.18,East,92,0.0,0.0,29,0.00,,---,0.00,VWS V14.00,2013-02-22 04:11:00,
2013-02-21 23:16:00,45.5,15.1,30.21,East,92,0.0,0.0,29,0.00,,---,0.00,VWS V14.00,2013-02-22 04:16:00,
2013-02-21 23:22:00,45.3,14.9,30.21,ENE,69,0.0,0.0,29,0.00,,---,0.00,VWS V14.00,2013-02-22 04:22:00,
2013-02-21 23:27:00,45.0,14.6,30.21,ENE,69,0.0,0.0,29,0.00,,---,0.00,VWS V14.00,2013-02-22 04:27:00,
2013-02-21 23:32:00,44.8,14.5,30.18,ENE,69,0.0,0.0,29,0.00,,---,0.00,VWS V14.00,2013-02-22 04:32:00,
2013-02-21 23:37:00,44.6,14.3,30.18,ENE,69,0.0,0.0,29,0.00,,---,0.00,VWS V14.00,2013-02-22 04:37:00,
2013-02-21 23:42:00,44.2,14.8,30.18,ENE,69,0.0,0.0,30,0.00,,---,0.00,VWS V14.00,2013-02-22 04:42:00,
2013-02-21 23:47:00,44.2,14.8,30.21,ENE,68,0.0,0.0,30,0.00,,---,0.00,VWS V14.00,2013-02-22 04:47:00,
2013-02-21 23:52:00,44.1,14.6,30.21,NE,55,0.0,0.0,30,0.00,,---,0.00,VWS V14.00,2013-02-22 04:52:00,
2013-02-21 23:57:00,43.7,14.3,30.21,NE,55,0.0,0.0,30,0.00,,---,0.00,VWS V14.00,2013-02-22 04:57:00,